Date,TemperatureHighF,TemperatureAvgF,TemperatureLowF,DewpointHighF,DewpointAvgF,DewpointLowF,HumidityHigh,HumidityAvg,HumidityLow,PressureMaxIn,PressureMinIn,WindSpeedMaxMPH,WindSpeedAvgMPH,GustSpeedMaxMPH,PrecipitationSumIn
2013-1-1,15,5,-6,6,-1,-10,91,77,63,30.33,30.22,9,1,9,0.00
2013-1-2,23,18,11,17,11,4,84,75,59,30.24,30.10,12,1,12,0.00
2013-1-3,26,20,10,21,16,5,87,83,79,30.28,30.10,17,3,17,0.00
2013-1-4,30,19,9,20,13,5,89,79,66,30.25,30.13,14,2,14,0.00
2013-1-5,35,25,8,32,21,6,93,86,76,30.27,29.90,16,1,16,0.05
2013-1-6,34,23,12,30,18,8,90,82,77,30.32,29.90,19,4,19,0.00
2013-1-7,36,26,12,26,20,9,90,78,62,30.31,30.07,15,1,15,0.01
2013-1-8,38,31,17,32,26,14,94,83,77,30.12,29.94,16,2,16,0.10
2013-1-9,40,33,19,32,26,16,88,76,59,30.49,29.94,20,4,20,0.01
2013-1-10,38,28,15,34,24,12,94,86,68,30.52,29.89,17,3,17,0.27
2013-1-11,45,39,34,44,38,33,98,96,94,29.89,29.59,17,2,17,0.03
2013-1-12,46,32,22,44,26,15,96,78,68,30.04,29.60,24,5,24,0.01
2013-1-13,22,16,12,15,9,5,77,73,67,30.27,29.92,18,5,18,0.00
2013-1-14,24,15,7,12,8,3,86,74,58,30.51,30.26,15,2,15,0.00
2013-1-15,29,19,8,17,12,5,90,74,55,30.47,30.11,12,1,12,0.00
2013-1-16,33,27,18,28,20,11,86,77,66,30.11,29.80,20,3,20,0.00
2013-1-17,28,20,12,21,10,5,83,64,50,30.44,30.11,17,3,17,0.00
2013-1-18,43,31,12,33,24,8,84,75,66,30.46,29.84,19,4,19,0.00
2013-1-19,46,36,15,35,28,4,87,72,43,30.00,29.66,34,6,40,0.00
2013-1-20,15,10,7,7,0,-2,75,63,51,30.36,30.00,26,6,26,0.00
2013-1-21,11,3,-2,3,-7,-12,75,63,53,30.36,30.20,26,7,26,0.00
2013-1-22,8,2,-6,-2,-7,-12,78,67,58,30.46,30.35,13,3,13,0.00
2013-1-23,18,12,4,14,5,-6,85,73,63,30.50,30.14,25,4,25,0.00
2013-1-24,16,7,-1,9,-1,-7,73,69,60,30.73,30.40,12,4,14,0.00
2013-1-25,26,19,13,17,12,6,86,74,63,30.40,29.97,22,5,22,0.00
2013-1-26,24,16,7,14,8,2,81,68,56,30.45,30.26,12,3,12,0.00
2013-1-27,33,28,22,32,24,14,95,82,69,30.36,29.86,21,7,21,0.02
2013-1-28,38,35,33,35,33,31,96,91,83,29.96,29.77,14,2,14,0.19
2013-1-29,52,41,34,52,40,33,99,97,94,29.78,29.49,11,2,11,1.38
2013-1-30,34,27,15,34,24,10,96,91,80,29.66,29.35,27,6,27,0.06
2013-1-31,15,9,1,10,4,-5,83,78,68,30.22,29.65,23,6,23,0.00
2013-2-1,6,0,-7,4,-6,-12,94,75,66,30.40,30.19,13,2,13,0.00
2013-2-2,10,6,1,4,2,-3,88,82,70,30.20,30.07,11,2,11,0.01
2013-2-3,19,14,6,12,8,3,88,80,67,30.09,29.99,20,3,20,0.00
2013-2-4,16,12,7,12,8,2,92,81,67,30.05,29.97,12,3,12,0.00
2013-2-10,40,38,37,39,37,36,97,95,94,29.58,29.40,22,6,22,0.10
2013-2-16,5,3,2,0,-1,-2,83,81,79,30.26,30.24,0,0,0,0.00
2013-2-17,19,5,-2,8,-1,-5,87,79,60,30.26,30.23,11,1,11,0.00
2013-2-18,28,25,22,25,21,18,87,85,83,29.59,29.54,23,8,23,0.06
2013-2-19,22,13,8,18,6,-1,92,75,64,30.26,29.59,25,8,25,0.00
2013-2-20,23,14,5,12,5,-2,75,68,59,30.44,30.26,16,4,16,0.00
2013-2-21,26,18,10,23,14,5,92,84,73,30.49,30.09,28,7,28,0.00
2013-2-22,30,27,24,27,24,22,93,89,84,30.09,29.82,27,4,27,0.06
2013-2-23,31,26,21,22,20,16,86,79,68,29.98,29.87,17,3,17,0.01
2013-2-24,39,24,10,25,18,6,91,77,54,30.17,29.98,8,1,8,0.01
2013-2-25,38,27,13,28,21,10,92,80,65,30.20,30.06,8,1,8,0.00
2013-2-26,33,30,28,29,26,24,94,85,77,30.06,29.68,32,10,32,0.00
2013-2-27,33,30,28,31,29,26,94,93,90,29.83,29.66,19,6,19,0.17
2013-2-28,33,31,24,30,26,19,93,83,73,30.17,29.82,19,6,19,0.09
2013-3-1,26,21,7,20,16,4,89,80,69,30.30,30.16,19,4,19,0.00
2013-3-2,27,15,6,15,8,2,90,74,54,30.32,30.22,12,2,12,0.00
2013-3-3,26,13,-1,12,5,-5,87,72,49,30.23,30.15,7,1,7,0.01
2013-3-4,31,22,7,25,16,3,92,80,66,30.18,30.06,22,6,22,0.00
2013-3-5,29,27,25,27,25,22,93,90,84,30.15,29.92,22,6,22,0.03
2013-3-6,32,28,24,27,23,19,90,83,76,30.36,30.15,15,4,15,0.12
2013-3-7,36,21,6,23,14,2,90,76,55,30.47,30.35,8,1,8,0.07
2013-3-8,36,24,8,28,19,5,92,81,70,30.51,30.31,16,2,16,0.00
2013-3-9,39,35,29,36,31,24,95,85,77,30.31,29.80,20,7,20,0.36
2013-3-10,40,37,34,39,36,33,97,95,93,29.82,29.64,23,4,23,0.80
2013-3-11,34,32,30,33,30,25,96,92,83,29.79,29.58,19,4,19,0.02
2013-3-12,33,28,25,26,23,18,90,81,70,30.06,29.80,18,5,18,0.01
2013-3-13,32,25,18,20,13,9,81,62,39,30.35,30.06,21,5,21,0.00
2013-3-14,33,24,12,28,19,8,90,83,71,30.36,30.09,11,1,11,0.02
2013-3-15,35,30,24,32,28,22,100,91,85,30.10,29.85,18,2,18,0.12
2013-3-21,14,14,13,9,9,8,82,80,80,30.09,30.09,0,0,0,0.01
2013-3-22,12,9,7,8,5,3,87,85,82,30.11,30.09,0,0,0,0.00
2013-3-23,28,28,28,21,21,21,76,75,74,30.12,30.10,6,1,6,0.00
2013-3-24,31,29,28,27,25,21,91,83,74,30.11,29.83,22,7,22,0.02
2013-3-25,34,30,24,27,23,19,81,73,67,30.13,29.87,17,6,17,0.00
2013-3-26,41,35,30,29,25,22,76,67,56,30.28,30.13,15,3,15,0.00
2013-3-27,42,34,25,27,24,20,82,68,44,30.35,30.28,10,2,10,0.00
2013-3-28,46,34,21,26,22,18,91,64,39,30.39,30.31,8,1,8,0.00
2013-3-29,47,35,22,29,24,20,92,65,39,30.36,30.24,9,1,9,0.00
2013-3-30,51,42,31,41,34,24,91,73,63,30.25,29.83,16,2,16,0.00
2013-3-31,45,39,32,40,33,20,93,79,59,29.94,29.74,24,6,24,0.00
2013-4-1,35,30,25,20,15,12,66,54,40,30.23,29.93,24,7,24,0.00
2013-4-2,38,29,24,17,16,13,75,60,38,30.36,30.23,17,3,17,0.00
2013-4-3,43,34,21,23,19,14,82,56,37,30.49,30.30,12,1,12,0.00
2013-4-4,57,44,30,38,29,21,73,58,42,30.30,29.96,20,4,20,0.00
2013-4-5,47,39,30,30,27,23,77,62,41,30.26,30.06,20,4,20,0.00
2013-4-6,58,46,34,50,36,20,91,67,52,30.14,29.55,24,6,24,0.06
2013-4-7,53,44,36,45,36,32,85,73,57,29.96,29.59,18,5,18,0.00
2013-4-8,56,46,38,51,42,32,96,86,78,29.99,29.61,19,6,19,0.60
2013-4-9,39,38,36,38,36,34,96,93,89,30.04,29.96,24,9,24,1.01
2013-4-10,36,34,32,35,32,30,100,92,88,30.10,29.92,25,8,26,0.79
2013-4-11,38,36,35,37,35,33,95,93,90,29.93,29.60,37,11,37,0.37
2013-4-12,36,34,34,34,31,28,96,89,78,29.82,29.54,14,2,14,0.04
2013-4-13,38,35,31,29,28,26,86,75,65,30.02,29.81,19,5,19,0.00
2013-4-14,52,39,31,46,35,27,92,84,75,30.02,29.57,30,8,30,0.12
2013-4-15,60,47,40,51,41,35,97,82,44,29.98,29.59,23,3,23,0.46
2013-4-16,52,43,33,37,33,29,85,70,52,30.31,29.97,17,4,17,0.00
2013-4-17,42,40,38,41,37,33,95,87,75,30.33,29.86,34,8,34,1.11
2013-4-18,57,45,37,56,44,33,98,94,83,29.90,29.31,23,5,23,0.53
2013-4-19,39,35,32,33,28,22,86,76,62,29.95,29.37,29,8,29,0.03
2013-4-20,44,39,29,26,20,16,71,47,33,30.41,29.95,20,4,20,0.00
2013-4-21,51,42,33,37,31,23,76,65,50,30.51,30.26,24,8,24,0.00
2013-4-22,64,53,43,46,40,35,76,63,46,30.27,29.98,18,4,18,0.00
2013-4-23,56,43,38,46,36,29,89,75,62,30.02,29.87,21,5,21,0.00
2013-4-24,53,43,33,32,27,22,77,56,34,30.06,29.99,18,4,18,0.00
2013-4-25,51,43,36,36,32,28,91,67,45,30.29,29.98,19,4,19,0.07
2013-4-26,69,54,38,49,40,29,75,60,45,30.28,30.12,25,3,25,0.00
2013-4-27,64,54,44,51,46,42,92,75,57,30.22,30.00,10,1,10,0.00
2013-4-28,70,55,39,50,44,36,95,70,44,30.00,29.77,10,1,10,0.00
2013-4-29,69,60,51,58,53,47,89,77,61,29.84,29.68,19,4,19,0.06
2013-4-30,86,71,59,62,56,51,93,62,34,29.85,29.64,22,3,22,0.06
2013-5-1,80,65,50,59,51,41,73,60,46,30.20,29.84,23,4,23,0.00
2013-5-2,53,46,37,42,38,34,89,75,64,30.30,30.19,27,7,27,0.04
2013-5-3,47,45,41,46,43,39,95,93,91,30.08,30.02,18,6,18,0.62
2013-5-4,70,57,47,57,49,45,94,77,51,30.07,29.98,20,4,20,0.01
2013-5-5,72,60,46,54,48,43,91,67,42,30.06,29.98,17,3,17,0.00
2013-5-6,73,60,43,51,46,40,92,62,35,30.07,29.97,18,2,18,0.01
2013-5-7,78,66,53,50,45,38,82,50,27,30.05,29.95,13,1,13,0.00
2013-5-8,80,65,47,55,49,42,91,59,28,30.02,29.93,10,1,10,0.00
2013-5-9,64,59,48,59,54,47,94,84,67,29.94,29.83,24,4,24,0.37
2013-5-10,52,46,42,48,43,39,94,90,82,30.00,29.87,21,5,21,0.41
2013-5-11,52,47,40,49,37,27,96,69,40,30.06,29.81,36,6,36,0.01
2013-5-12,54,45,36,32,27,24,70,51,31,30.14,30.06,22,6,22,0.02
2013-5-13,63,50,30,42,34,26,90,57,29,30.19,29.90,13,2,13,0.26
2013-5-14,88,71,53,62,52,41,68,52,28,29.90,29.50,29,3,29,0.12
2013-5-15,78,70,54,62,49,42,76,48,30,29.83,29.53,18,3,18,0.00
2013-5-16,82,66,48,57,48,39,88,56,30,29.95,29.82,19,3,19,0.00
2013-5-17,62,56,48,55,47,37,93,73,45,30.07,29.94,18,5,18,0.77
2013-5-18,78,66,51,67,58,47,87,76,60,30.05,29.89,15,4,15,0.00
2013-5-19,82,71,61,68,63,58,91,76,57,29.91,29.61,23,5,26,0.16
2013-5-20,81,72,62,66,62,59,96,74,55,29.77,29.56,18,3,18,0.46
2013-5-21,77,69,59,64,60,56,89,74,59,29.67,29.56,14,2,14,0.00
2013-5-22,67,58,54,61,56,53,96,92,75,29.77,29.60,16,2,16,0.25
2013-5-23,61,54,46,53,46,39,95,77,47,30.30,29.77,21,6,21,0.17
2013-5-24,62,51,36,46,40,34,94,69,44,30.47,30.29,13,2,13,0.11
2013-5-25,60,53,48,44,40,35,78,61,47,30.39,30.28,17,4,17,0.00
2013-5-26,65,55,43,52,44,36,84,67,46,30.31,30.14,20,5,20,0.03
2013-5-27,56,53,51,53,49,42,96,87,66,30.15,29.88,25,8,25,0.06
2013-5-28,63,52,51,62,51,50,97,96,95,29.89,29.75,10,4,10,0.56
2013-5-29,80,70,62,70,65,61,98,84,69,29.88,29.75,19,3,19,0.75
2013-5-30,81,71,63,72,66,60,97,84,67,29.86,29.65,26,4,26,0.49
2013-5-31,75,68,63,68,63,60,93,85,67,29.75,29.64,17,3,17,0.00
2013-6-1,78,69,62,66,62,56,98,80,57,29.68,29.58,18,2,18,0.00
2013-6-2,63,55,46,58,46,40,88,73,56,30.02,29.68,23,4,23,0.00
2013-6-3,69,57,40,49,44,36,95,65,35,30.11,30.00,10,1,10,0.00
2013-6-4,69,62,52,54,50,46,89,66,47,30.16,30.05,18,3,18,0.15
2013-6-5,65,56,50,58,52,47,94,87,74,30.12,29.92,17,3,17,0.19
2013-6-6,59,55,52,55,52,50,95,90,82,29.96,29.92,11,3,11,0.25
2013-6-7,69,59,52,56,51,48,90,77,51,30.01,29.90,12,2,12,0.00
2013-6-8,72,62,51,54,51,45,94,70,46,29.99,29.91,14,2,14,0.00
2013-6-9,78,67,57,63,57,49,95,71,54,30.00,29.76,25,6,25,0.42
2013-6-10,80,70,59,67,63,58,96,79,59,29.84,29.74,10,1,10,0.00
2013-6-11,83,72,58,69,64,56,96,77,56,29.89,29.75,11,1,11,0.00
2013-6-12,77,70,62,70,66,60,96,88,77,29.88,29.56,25,4,25,1.28
2013-6-13,78,68,58,62,58,55,95,73,51,30.04,29.74,18,3,18,0.00
2013-6-14,75,66,53,61,57,51,95,73,56,30.14,29.97,13,3,13,0.00
2013-6-15,80,69,58,71,63,54,95,82,69,30.04,29.78,22,2,22,0.69
2013-6-16,77,74,70,68,67,64,90,81,68,29.87,29.86,8,3,8,0.00
2013-6-17,85,78,64,65,60,57,80,57,41,29.93,29.84,22,4,22,0.00
2013-6-20,83,78,73,66,64,63,71,64,56,30.03,29.99,13,4,13,0.00
2013-6-21,79,72,65,68,65,62,95,81,65,30.05,29.80,27,2,27,0.72
2013-6-22,79,71,66,73,67,64,96,89,71,30.07,29.88,23,3,23,1.94
2013-6-23,84,73,63,76,68,62,97,85,72,30.05,29.82,13,2,13,0.32
2013-6-24,81,73,68,71,67,65,94,83,69,29.98,29.86,13,1,13,0.00
2013-6-25,76,75,75,73,72,72,92,91,89,29.77,29.75,5,1,5,1.20
2013-6-26,83,74,66,72,70,64,98,86,64,29.78,29.66,24,2,24,2.42
2013-6-27,88,78,69,74,69,61,97,75,51,29.76,29.65,16,2,16,0.00
2013-6-28,76,69,64,66,62,59,95,79,60,29.71,29.61,21,3,21,0.13
2013-6-29,72,66,63,64,62,59,96,89,67,29.83,29.61,21,4,21,0.34
2013-6-30,76,66,57,62,56,51,88,70,49,30.04,29.82,16,3,16,0.00
2013-7-1,77,67,56,60,55,51,87,68,45,30.11,30.03,22,3,22,0.00
2013-7-2,73,64,54,58,53,45,92,70,38,30.11,30.05,16,2,16,0.00
2013-7-3,72,63,53,63,57,50,92,82,71,30.08,30.01,8,1,8,0.00
2013-7-4,80,70,57,66,61,56,96,75,51,30.06,29.97,11,1,11,0.00
2013-7-5,83,75,65,70,65,61,88,73,57,30.03,29.95,12,2,12,0.00
2013-7-6,84,76,65,71,66,61,87,73,60,30.00,29.90,10,2,10,0.00
2013-7-7,88,78,69,75,70,66,90,77,58,29.94,29.86,10,1,10,0.00
2013-7-8,88,80,71,77,74,69,96,81,65,29.94,29.87,10,1,10,0.32
2013-7-9,85,76,70,76,72,68,96,89,74,29.95,29.78,7,1,12,0.70
2013-7-10,78,73,61,73,63,57,95,73,51,30.00,29.80,8,2,22,0.00
2013-7-11,75,60,54,64,57,53,96,90,60,30.10,30.00,2,0,6,0.00
2013-7-12,81,70,55,62,58,53,94,68,46,30.14,30.05,10,1,10,0.00
2013-7-13,82,73,64,67,62,58,82,68,53,30.13,30.06,11,2,11,0.00
2013-7-14,85,75,60,72,66,57,93,75,60,30.19,30.12,9,2,9,0.00
2013-7-15,89,79,66,77,72,64,96,79,61,30.24,30.15,10,1,10,0.00
2013-7-16,92,83,74,78,75,72,94,78,59,30.24,30.17,10,1,10,0.00
2013-7-17,94,83,72,78,75,70,97,78,54,30.25,30.11,10,1,10,0.00
2013-7-18,92,83,71,77,74,69,97,75,55,30.13,29.84,14,1,14,0.00
2013-7-19,90,82,74,75,71,65,78,69,55,29.84,29.69,9,2,14,0.00
2013-7-20,85,74,60,68,64,57,92,71,51,29.94,29.79,11,2,11,0.00
2013-7-21,81,67,59,71,62,57,95,85,66,29.95,29.84,21,2,21,0.80
2013-7-22,86,72,62,73,67,61,96,83,61,29.87,29.64,26,2,26,0.11
2013-7-23,73,68,55,65,58,52,95,72,56,29.98,29.70,15,3,15,0.00
2013-7-24,74,63,51,58,54,49,96,75,50,30.08,29.97,7,1,7,0.00
2013-7-25,80,68,54,68,60,52,94,79,59,30.06,29.94,12,1,12,0.09
2013-7-26,76,68,62,70,62,55,94,82,53,29.94,29.81,16,2,16,0.24
2013-7-27,63,56,52,56,49,45,92,77,63,29.95,29.87,19,3,19,0.03
2013-7-28,68,58,51,54,51,48,93,79,60,30.02,29.85,16,3,16,0.05
2013-7-29,73,63,52,62,56,50,92,78,63,30.16,30.01,8,1,9,0.00
2013-7-30,72,65,56,63,60,55,96,85,69,30.16,30.06,10,2,10,0.00
2013-7-31,78,68,59,69,63,57,95,84,63,30.07,29.94,19,1,19,0.00
2013-8-1,78,68,59,61,58,53,96,73,46,29.99,29.88,14,2,14,0.00
2013-8-2,80,71,60,67,60,55,95,71,46,29.95,29.81,12,2,12,0.20
2013-8-3,77,66,51,60,54,49,94,69,41,30.13,29.95,16,1,16,0.00
2013-8-4,76,64,52,62,56,49,93,76,50,30.22,30.09,9,1,9,0.00
2013-8-5,73,65,60,65,61,56,94,85,72,30.10,29.83,10,2,10,0.07
2013-8-6,84,74,66,72,68,64,96,82,62,29.86,29.75,9,1,9,0.00
2013-8-7,79,73,62,72,66,58,95,79,62,29.95,29.72,17,2,17,0.00
2013-8-8,78,69,59,65,61,56,95,76,55,30.03,29.95,10,1,10,0.00
2013-8-9,80,70,59,66,60,53,88,71,52,30.05,29.95,10,1,11,0.00
2013-8-10,76,65,51,60,56,50,96,74,49,30.15,30.05,9,1,9,0.00
2013-8-11,75,64,53,66,60,51,96,89,74,30.13,30.01,9,0,9,0.10
2013-8-12,81,70,60,68,64,56,97,80,54,30.02,29.88,15,1,15,0.01
2013-8-13,72,62,52,58,52,47,90,69,47,30.16,29.97,16,2,16,0.00
2013-8-14,74,60,44,56,51,43,96,75,48,30.23,30.11,10,0,10,0.00
2013-8-15,79,67,54,61,56,50,94,71,39,30.15,30.08,11,1,11,0.00
2013-8-16,81,66,51,61,56,49,96,72,41,30.18,30.11,11,1,11,0.00
2013-8-17,80,66,51,62,56,49,96,73,44,30.23,30.14,10,1,10,0.00
2013-8-18,80,68,51,64,57,49,94,71,42,30.20,30.07,9,1,9,0.00
2013-8-19,82,69,54,67,60,52,95,76,52,30.08,29.99,12,1,12,0.00
2013-8-20,86,74,60,70,66,58,96,75,54,30.04,29.96,12,1,12,0.00
2013-8-21,89,79,70,73,70,65,84,73,57,29.99,29.88,17,1,17,0.00
2013-8-22,78,71,66,71,68,63,97,90,77,30.10,29.94,25,1,25,1.43
2013-8-23,81,69,55,65,60,54,97,75,54,30.17,30.09,10,1,10,0.00
2013-8-24,82,71,56,71,64,54,94,79,66,30.23,30.12,12,2,12,0.00
2013-8-25,89,79,70,75,69,64,85,72,58,30.17,30.04,14,2,14,0.00
2013-8-26,91,80,71,78,72,66,85,76,63,30.09,29.91,12,1,12,0.00
2013-8-27,94,83,74,78,74,69,87,75,57,29.92,29.75,14,1,14,0.00
2013-8-28,82,76,70,74,71,67,95,86,71,30.02,29.79,10,2,10,0.00
2013-8-29,85,75,62,73,68,60,98,80,59,30.06,29.93,12,1,12,0.00
2013-8-30,92,80,72,80,73,67,94,80,64,29.93,29.72,13,2,13,0.00
2013-8-31,80,71,64,70,65,61,93,82,68,29.85,29.76,11,1,11,0.00
2013-9-1,84,72,60,73,65,57,97,82,50,29.82,29.69,18,2,18,0.00
2013-9-2,70,63,53,60,56,50,93,78,60,30.01,29.82,14,2,14,0.00
2013-9-3,74,60,44,58,52,43,97,77,51,30.10,30.00,10,1,10,0.00
2013-9-4,84,66,47,68,58,46,99,78,53,30.11,30.03,12,1,12,0.00
2013-9-5,76,67,58,63,59,49,94,77,62,30.25,30.10,13,2,13,0.00
2013-9-6,86,71,54,69,61,49,86,71,56,30.20,29.95,11,1,11,0.00
2013-9-7,90,78,68,75,68,62,90,73,59,29.95,29.83,15,1,15,0.00
2013-9-8,72,68,62,68,63,58,91,86,81,30.04,29.92,17,4,17,0.00
2013-9-9,90,78,66,78,70,62,94,79,62,29.95,29.73,11,2,11,0.00
2013-9-10,94,84,75,70,66,64,71,57,40,29.91,29.78,19,2,19,0.00
2013-9-11,82,72,66,69,66,64,96,82,60,30.06,29.91,12,1,12,0.26
2013-9-12,74,65,56,64,55,48,96,72,50,30.14,29.95,23,3,23,0.00
2013-9-13,65,54,44,48,43,40,91,68,41,30.23,30.14,8,2,13,0.00
2013-9-14,71,58,39,51,46,37,97,68,46,30.18,29.97,11,1,11,0.00
2013-9-15,63,57,54,56,53,48,95,88,59,30.23,29.95,13,2,13,0.63
2013-9-16,64,54,42,52,45,38,89,75,52,30.41,30.23,13,3,13,0.00
2013-9-17,68,55,39,57,49,37,97,81,62,30.36,30.07,14,2,14,0.00
2013-9-18,75,67,60,67,62,56,92,84,73,30.08,29.85,13,3,13,0.06
2013-9-19,85,72,67,75,68,65,97,90,60,29.86,29.67,21,2,21,1.37
2013-9-20,69,65,56,66,60,53,96,85,68,29.83,29.70,16,2,16,0.00
2013-9-21,60,54,46,53,48,43,92,81,65,29.96,29.82,18,3,18,0.00
2013-9-22,65,52,40,51,45,38,96,79,56,30.09,29.96,6,1,8,0.00
2013-9-23,68,54,40,56,47,38,97,79,57,30.13,30.02,11,2,11,0.00
2013-9-24,72,57,42,55,49,40,97,77,49,30.05,29.94,13,2,13,0.00
2013-9-25,71,58,44,57,51,42,96,80,56,30.00,29.93,11,2,11,0.00
2013-9-26,76,58,42,59,50,40,98,77,48,30.08,29.99,11,1,11,0.00
2013-9-27,80,64,45,60,52,43,98,70,43,30.13,30.01,13,3,13,0.00
2013-9-28,78,65,54,66,57,50,93,75,61,30.02,29.80,18,3,18,0.23
2013-9-29,69,56,43,54,47,39,98,76,34,30.07,29.96,7,0,7,0.01
2013-9-30,72,61,48,54,49,44,89,67,45,29.99,29.80,14,2,14,0.00
2013-10-1,80,67,55,65,58,51,91,75,57,29.95,29.81,15,1,15,0.00
2013-10-2,76,61,44,56,47,42,98,66,32,30.11,29.95,9,1,9,0.00
2013-10-3,75,66,58,67,61,44,95,84,56,29.96,29.80,16,1,16,0.00
2013-10-4,67,64,61,65,63,60,97,96,93,29.98,29.84,16,2,16,0.36
2013-10-5,72,65,57,71,64,50,100,96,78,29.93,29.72,13,2,13,0.14
2013-10-6,59,51,42,49,43,40,95,77,54,29.76,29.67,10,1,10,0.04
2013-10-7,67,52,41,50,45,39,94,78,48,30.09,29.72,17,2,17,0.01
2013-10-8,74,57,38,55,47,36,99,72,42,30.15,30.06,13,1,13,0.00
2013-10-9,72,60,50,54,49,45,88,69,42,30.20,30.10,11,1,11,0.00
2013-10-10,73,56,40,55,48,38,97,76,48,30.16,30.03,10,1,10,0.00
2013-10-11,73,61,46,62,54,44,99,79,60,30.03,29.89,18,3,18,0.00
2013-10-12,69,61,42,60,52,38,91,73,46,30.14,29.86,17,2,17,0.01
2013-10-13,60,46,34,44,37,32,96,74,41,30.43,30.14,15,1,15,0.00
2013-10-14,62,46,31,46,39,29,97,78,53,30.44,30.12,17,2,17,0.00
2013-10-15,60,53,47,58,49,43,97,86,72,30.13,29.72,17,3,17,0.26
2013-10-16,53,50,47,50,46,44,96,89,81,29.94,29.77,8,2,12,0.03
2013-10-17,54,46,37,45,42,34,95,86,58,29.92,29.81,13,0,13,0.07
2013-10-18,48,42,35,43,38,33,95,85,72,29.96,29.80,15,1,15,0.00
2013-10-19,52,40,29,41,35,27,96,84,50,29.92,29.73,23,1,23,0.02
2013-10-20,49,40,28,47,38,26,97,90,72,29.87,29.71,15,2,15,0.11
2013-10-21,47,38,29,43,30,23,88,73,60,29.97,29.76,23,3,23,0.00
2013-10-22,45,36,25,32,27,21,88,73,56,30.00,29.93,13,2,13,0.00
2013-10-23,43,35,28,30,27,24,90,76,51,30.05,29.98,13,1,13,0.00
2013-10-24,43,36,29,29,26,24,83,70,51,30.32,30.05,20,3,20,0.00
2013-10-25,51,40,26,34,28,22,87,64,46,30.38,29.92,21,2,21,0.00
2013-10-26,50,45,38,38,31,28,76,59,45,30.08,29.79,26,4,26,0.00
2013-10-27,55,40,25,34,30,22,93,68,42,30.08,29.90,18,1,18,0.00
2013-10-28,43,40,34,33,32,28,84,73,65,30.44,30.05,21,6,21,0.00
2013-10-29,51,43,37,42,36,29,87,77,66,30.43,30.13,14,4,14,0.00
2013-10-30,54,50,45,54,48,41,98,93,86,30.14,29.73,16,3,16,0.00
2013-10-31,55,45,43,54,43,40,97,91,89,29.73,29.28,15,4,15,0.51
2013-11-1,46,43,38,43,40,36,92,89,85,29.77,29.33,17,2,17,0.02
2013-11-2,45,39,30,37,35,27,95,85,68,30.17,29.76,14,2,14,0.02
2013-11-3,49,38,24,40,32,22,100,81,57,30.32,30.17,23,4,23,0.00
2013-11-4,52,48,43,46,41,37,88,77,69,30.22,30.03,25,5,25,0.00
2013-11-5,54,50,46,51,47,44,96,91,80,30.25,29.84,19,3,19,0.43
2013-11-6,54,42,32,54,38,25,97,83,62,30.18,29.69,23,4,23,0.34
2013-11-7,40,34,29,32,28,24,85,79,69,30.27,30.18,13,2,13,0.00
2013-11-8,47,36,22,37,30,20,95,79,62,30.31,29.80,23,4,23,0.00
2013-11-9,48,47,46,37,37,37,71,68,67,29.81,29.77,11,3,11,0.00
2013-11-10,47,46,45,32,31,30,59,57,55,30.32,30.28,11,3,11,0.00
2013-11-16,57,54,48,54,52,47,96,93,90,29.65,29.46,24,6,24,0.17
2013-11-17,57,49,39,55,46,33,96,90,77,29.68,29.15,29,5,29,0.96
2013-11-18,39,33,26,34,26,21,82,74,63,30.29,29.68,30,6,30,0.00
2013-11-19,39,30,18,30,24,16,93,78,63,30.40,30.25,16,4,16,0.00
2013-11-20,40,36,34,35,31,29,93,81,67,30.26,30.10,24,8,24,0.05
2013-11-21,42,39,37,39,37,34,94,90,85,30.28,30.12,13,2,13,0.00
2013-11-22,38,30,24,35,24,16,91,78,59,30.52,30.28,19,4,19,0.03
2013-11-23,24,18,11,17,7,3,76,64,50,30.78,30.45,21,6,26,0.00
2013-11-24,27,18,8,10,6,3,81,61,39,30.75,30.30,17,2,17,0.00
2013-11-25,30,25,22,25,18,9,89,74,53,30.30,30.05,18,4,18,0.00
2013-11-28,29,27,25,18,17,15,72,65,63,30.29,30.24,12,5,12,0.00
2013-11-30,42,36,29,32,29,25,92,76,65,30.18,30.06,9,1,9,0.00
2013-12-1,39,32,27,30,26,22,89,79,63,30.17,30.00,9,1,9,0.00
2013-12-2,29,25,22,25,22,19,93,88,85,30.01,29.93,3,0,3,0.00
2013-12-4,46,38,33,45,36,30,98,94,88,29.65,29.47,25,7,25,0.04
2013-12-5,33,21,13,30,14,7,88,74,65,30.34,29.65,24,7,24,0.00
2013-12-6,16,11,7,7,3,1,79,72,60,30.63,30.31,16,4,16,0.00
2013-12-7,14,7,2,3,0,-3,90,73,57,30.77,30.63,12,2,12,0.00
2013-12-8,20,14,7,17,9,1,90,80,65,30.68,30.01,14,4,15,0.00
2013-12-9,16,9,-4,13,4,-9,89,79,66,30.25,29.99,19,3,19,0.01
2013-12-10,17,9,-6,10,2,-11,84,75,64,30.32,29.98,22,4,22,0.00
2013-12-11,14,7,-4,10,0,-12,86,72,56,30.59,30.31,20,3,20,0.00
2013-12-12,17,14,7,11,7,-1,83,72,65,30.41,30.23,12,2,12,0.00
2013-12-13,23,17,11,17,12,6,86,81,74,30.26,30.20,19,6,19,0.00
2013-12-14,22,20,18,20,16,13,92,86,81,30.23,29.98,19,5,19,0.00
2013-12-15,19,10,4,15,2,-6,82,69,59,30.20,29.97,22,6,22,0.00
2013-12-16,14,6,-5,11,1,-11,88,77,63,30.22,30.07,11,1,11,0.00
2013-12-17,33,28,20,26,20,12,79,71,63,30.11,29.94,21,6,21,0.08
2013-12-18,33,22,7,27,15,3,92,75,60,30.14,29.80,17,2,17,0.00
2013-12-19,31,25,19,26,21,15,92,86,77,30.02,29.82,20,4,20,0.00
2013-12-20,23,22,20,21,20,18,93,90,88,29.94,29.85,14,4,14,0.00
2013-12-21,27,24,22,25,23,21,94,93,91,29.93,29.77,16,3,16,0.00
2013-12-22,26,23,15,24,21,12,93,90,87,30.16,29.74,16,3,16,0.01
2013-12-23,20,9,-2,18,5,-7,92,83,77,30.50,30.15,12,3,12,0.00
2013-12-24,10,1,-11,7,-3,-16,92,81,74,30.62,30.36,12,2,12,0.00
2013-12-27,36,35,33,30,29,28,83,80,78,30.08,30.03,15,2,15,0.01
2013-12-28,42,33,21,34,28,18,92,82,71,30.08,29.76,11,1,11,0.24
2013-12-29,38,19,-3,31,13,-11,88,77,68,30.30,29.74,18,6,24,0.00
2013-12-30,3,-4,-15,-3,-10,-21,81,72,58,30.40,30.29,6,1,6,0.00
2013-12-31,7,2,-6,2,-2,-10,92,80,69,30.44,30.28,10,2,10,0.00
2014-1-1,8,4,0,1,-3,-8,74,71,67,30.47,30.38,16,5,16,0.00
2014-1-2,11,8,6,3,1,-1,80,74,64,30.44,30.34,16,5,16,0.00